User: anonymous   Login
Location: Lombard
(41.8800°N, 88.0080°W)
Time: 02:59:00
(UTC-05:00)
Language:

DUCHIFAT 1 - Orbit

View from above orbital plane
View from above orbital plane
View from above satellite
View from above satellite

Ground track
Ground track

The orbit data is extracted from the following two-line orbital elements,

1 40021U 14033M   22135.83012273  .00004741  00000-0  46542-3 0  9997
2 40021  98.0109  85.4502 0013456 141.6160 218.6019 14.92621343429836
Epoch (UTC): 15 May 2022 19:55:22
Eccentricity: 0.0013456
inclination: 98.0109°
perigee height: 580 km
apogee height: 599 km
right ascension of ascending node: 85.4502°
argument of perigee: 141.6160°
revolutions per day: 14.92621343
mean anomaly at epoch: 218.6019°
orbit number at epoch: 42983

The dashed part of the orbit path shows where the satellite is in the earth's shadow,  

DLR